User: anonymous   Login
Location: Unspecified
(0.0000°N, 0.0000°E)
Time: 00:04:48
(UTC+00:00)
Language:

SKYNET 4F - Orbit

View from above orbital plane
View from above orbital plane
View from above satellite
View from above satellite

Ground track
Ground track

The orbit data is extracted from the following two-line orbital elements,

1 26695U 01005B   18112.13660693 -.00000263  00000-0  00000+0 0  9992
2 26695   9.2362  34.5105 0002576 346.2126 204.6219  1.00269735 63011
Epoch (UTC): 22 April 2018 03:16:42
Eccentricity: 0.0002576
inclination: 9.2362°
perigee height: 35776 km
apogee height: 35797 km
right ascension of ascending node: 34.5105°
argument of perigee: 346.2126°
revolutions per day: 1.00269735
mean anomaly at epoch: 204.6219°
orbit number at epoch: 6301

The dashed part of the orbit path shows where the satellite is in the earth's shadow,  

DLR